{"data":{"norad_id":65112,"intl_designator":"2025-168G","name":"HULIANWANG DIGUI-55","alt_names":[],"object_type":"PAYLOAD","status":"ACTIVE","operator":null,"country":"PRC","launch_date":"2025-08-04","launch_site_code":"WSC","launch_vehicle":null,"mission":null,"orbit_class":"UNKNOWN","rcs_meters":null,"size_class":null,"mass_kg":null,"dimensions":null,"purposes":[],"wikipedia_slug":null,"has_3d_model":false,"image_url":null,"decayed_at":null,"tle_current":{"epoch":"2026-05-25T04:33:01.014048Z","epoch_age_seconds":58737,"freshness":"FRESH","line1":"1 65112U 25168G   26145.18959507 -.00000082  00000+0  91347-4 0  9997","line2":"2 65112  50.0006  47.9911 0012192  24.7648 335.3808 13.29318225 39632","mean_motion":13.29318225,"eccentricity":0.0012192,"inclination_deg":50.0006,"raan_deg":47.9911,"arg_perigee_deg":24.7648,"mean_anomaly_deg":335.3808,"bstar":9.1347e-5,"rev_number":3963,"period_min":108.32620608959,"perigee_km":1140.1584281607,"apogee_km":1158.5134181365,"semimajor_km":7527.4729231486,"source":"CELESTRAK","updated_at":"2026-05-25T13:38:05.135190Z"}}}